Regional Weather Roundup
Issued by NWS

Home | Current Version | Previous Version | Graphics & Text | Print | Product List | Glossary On
Versions: 1 2 3 4 5 6 7 8 9 10 11 12 13 14 15 16 17 18 19 20 21 22 23 24 25 26 27 28 29 30 31 32 33 34 35 36 37 38 39 40 41 42 43 44 45 46 47 48 49 50
000
ASUS45 KCYS 242110
RWRWY

WYOMING REGIONAL WEATHER ROUNDUP
NATIONAL WEATHER SERVICE CHEYENNE WY
300 PM MDT FRI APR 24 2015

NOTE:  "FAIR" INDICATES FEW OR NO CLOUDS BELOW 12,000 FEET
WITH NO SIGNIFICANT WEATHER AND/OR OBSTRUCTIONS TO VISIBILITY.

WYZ001-242200-
YELLOWSTONE NATIONAL PARK

CITY           SKY/WX    TMP DP  RH WIND       PRES   REMARKS
LK YELLOWSTONE   N/A     47  22  37 VRB6      29.73S
W YELLOWSTONE  NOT AVBL

$$
WYZ002>013-054>058-071-098>099-242200-
NORTHERN WYOMING

CITY           SKY/WX    TMP DP  RH WIND       PRES   REMARKS
JACKSON        MOSUNNY   55  27  33 S9G17     29.67F
CODY           CLOUDY    63  27  25 CALM      29.58S
GREYBULL       FAIR      70  23  17 SE8       29.53F
WORLAND        FAIR      67  25  20 VRB5      29.54F
SHERIDAN       PTSUNNY   66  37  34 NW9       29.57S
BUFFALO        FAIR      63  38  39 S8        29.61F
GILLETTE       PTSUNNY   62  37  39 E7        29.58F
HULETT         FAIR      68  23  18 SE13G20   29.61S
NEWCASTLE      LGT RAIN  50  41  71 E20G25    29.62S

$$
WYZ014>020-022>026-101>103-242200-
CENTRAL WYOMING

CITY           SKY/WX    TMP DP  RH WIND       PRES   REMARKS
BIG PINEY      PTSUNNY   52  35  52 E10       29.72S
PINEDALE       LGT RAIN  45  34  65 SE3       29.73F
DUBOIS         MOCLDY    54  23  30 W18       29.65F
LANDER         FAIR      64  33  31 W21G35    29.59S
RIVERTON       FAIR      65  23  20 VRB3      29.59F
CASPER         FAIR      66  17  15 SW10G20   29.59F
DOUGLAS        FAIR      68  28  22 W15G21    29.59F

$$
WYZ021-027>030-104>119-242200-
SOUTHERN WYOMING

CITY           SKY/WX    TMP DP  RH WIND       PRES   REMARKS
EVANSTON       PTSUNNY   57  30  35 W18G28    29.72F
KEMMERER       LGT RAIN  39  36  87 E3        29.75F
FORT BRIDGER   CLEAR     55  32  41 W18       29.76F
ROCK SPRINGS   LGT RAIN  43  36  76 W24       29.78R
DIXON          MOCLDY    60  24  25 SW7       29.73S
RAWLINS        CLOUDY    53  28  38 N13       29.71F
SARATOGA       LGT RAIN  50  30  46 W17G32    29.72R
LARAMIE        PTSUNNY   53  30  41 SW21      29.71F
CHEYENNE       PTSUNNY   56  27  32 W25G37    29.66S
TORRINGTON     FAIR      68  33  27 E5        29.55F
PINE BLUFFS    CLOUDY    55  34  44 S13       29.65S

$$


USA.gov is the U.S. government's official web portal to all federal, state and local government web resources and services.